Reflectivity
-20 -20 -20 -20 -20 -20 3 -20 -20 -20 -20 -20 -20 -20 -20 -20 -20 -20 -20 -20 -20 -20 -20 -20 -20 -20 -20 -20 -20 -20 -20 -20 -20 -20 -20 -20 -20 -20 -20 -20 -20 -20 -20 -20 -20 -20 -20 -20 -20
-20 -20 -20 -20 -20 -20 17 -16 -20 -20 -20 -20 -20 -20 -20 -20 -20 -20 -20 -20 -20 -20 -20 -20 -20 -20 -20 -20 -20 -20 -20 -20 -20 -20 -20 -20 -20 -20 -20 -20 -20 -20 -20 -20 -20 -20 -20 -20 -20
-20 -20 -20 -20 -20 -6 11 -20 -20 -20 -20 -20 -20 -20 -20 -20 -20 -20 -20 -20 -20 -20 -20 -20 -20 -20 -20 -20 -20 -20 -20 -20 -20 -20 -20 -20 -20 -20 -20 -20 -20 -20 -20 -20 -20 -20 -20 -20 -20
-20 -20 -20 -20 -20 -20 -20 -20 -20 -20 -20 -20 -20 -20 -20 -20 -20 -20 -20 -20 -20 -20 -20 -20 -20 -20 -20 -20 -20 -20 -20 -20 -20 -20 -20 -20 -20 -20 -20 -20 -20 -20 -20 -20 -20 -20 -20 -20 -20
-20 -20 -20 -20 -20 -20 -20 -20 -20 -20 -20 -20 -20 -20 -20 -20 -20 -20 -20 -20 -20 -20 -20 -20 -20 -20 -20 -20 -20 -20 -20 -20 -20 -20 -20 -20 -20 -20 -20 -20 -20 -20 -20 -20 -20 -20 -20 -20 -20
-20 -20 -20 -20 -20 -20 -20 -20 -20 -20 -20 -20 -20 -20 -20 -20 -20 -20 -20 -20 -20 -20 -20 -20 -20 -20 -20 -20 -20 -20 -20 -20 -20 -20 -20 -20 -20 -20 -20 -20 -20 -20 -20 -20 -20 -20 -20 -20 -20
-20 -20 -20 -20 -20 -20 -20 -20 -20 -20 -20 -20 -20 -20 -20 -20 -20 -20 -20 -20 -20 -20 -20 -20 -20 -20 -20 -20 -20 -20 -20 -20 -20 -20 -20 -20 -20 -20 -20 -20 -20 -20 -20 -20 -20 -20 -20 -20 -20
-20 -20 -20 -20 -20 -20 -20 -20 -20 -20 -20 -20 -20 -20 -20 -20 -20 -20 -20 -20 -20 -20 -20 -20 -20 -20 -20 -20 -20 -20 -20 -20 -20 -20 -20 -20 -20 -20 -20 -20 -20 -20 -20 -20 -20 -20 -20 -20 -20
-20 -20 -20 -20 -20 -20 -20 -20 -20 -20 -20 -20 -20 -20 -20 -20 -20 -20 -20 -20 -20 -20 -20 -20 -20 -20 -20 -20 -20 -20 -20 -20 -20 -20 -20 -20 -20 -20 -20 -20 -20 -20 -20 -20 -20 -20 -20 -20 -20
-20 -20 -20 -20 -20 -20 -20 -20 -20 -20 -20 -20 -20 -20 -20 -20 -20 -20 -20 -20 -20 -20 -20 -20 -20 -20 -20 -20 -20 -20 -20 -20 -20 -20 -20 -20 -20 -20 -20 -20 -20 -20 -20 -20 -20 -20 -20 -20 -20
-20 -20 -20 -20 -20 -20 -20 -20 -20 -20 -20 -20 -20 -20 -20 -20 -20 -20 -20 -20 -20 -20 -20 -20 -20 -20 -20 -20 -20 -20 -20 -20 -20 -20 -20 -20 -20 -20 -20 -20 -20 -20 -20 -20 -20 -20 -20 -20 -20
-20 -20 -20 -20 -20 -20 -20 -20 -20 -20 -20 -20 -20 -20 -20 -20 -20 -20 -20 -20 -20 -20 -20 -20 -20 -20 -20 -20 -20 -20 -20 -20 -20 -20 -20 -20 -20 -20 -20 -20 -20 -20 -20 -20 -20 -20 -20 -20 -20
-20 -20 -20 -20 -20 -20 -20 -20 -20 -20 -20 -20 -20 -20 -20 -20 -20 -20 -20 -20 -20 -20 -20 -20 -20 -20 -20 -20 -20 -20 -20 -20 -20 -20 -20 -20 -20 -20 -20 -20 -20 -20 -20 -20 -20 -20 -20 -20 -20
-20 -20 -20 -20 -20 -20 -20 -20 -20 -20 -20 -20 -20 -20 -20 -20 -20 -20 -20 -20 -20 -20 -20 -20 -20 -20 -20 -20 -20 -20 -20 -20 -20 -20 -20 -20 -20 -20 -20 -20 -20 -20 -20 -20 -20 -20 -20 -20 -20
-20 -20 -20 -20 -20 -20 -20 -20 -20 -20 -20 -20 -20 -20 -20 -20 -20 -20 -20 -20 -20 -20 -20 -20 -20 -20 -20 -20 -20 -20 -20 -20 -20 -20 -20 -20 -20 -20 -20 -20 -20 -20 -20 -20 -20 -20 -20 -20 -20
-20 -20 -20 -20 -20 -20 -20 -20 -20 -20 -20 -20 -20 -20 -20 -20 -20 -20 -20 -20 -20 -20 -20 -20 -20 -20 -20 -20 -20 -20 -20 -20 -20 -20 -20 -20 -20 -20 -20 -20 -20 -20 -20 -20 -20 -20 -20 -20 -20
-20 -20 -20 -20 -20 -20 -20 -20 -20 -20 -20 -20 -20 -20 -20 -20 -20 -20 -20 -20 -20 -20 -20 -20 -20 -20 -20 -20 -20 -20 -20 -20 -20 -20 -20 -20 -20 -20 -20 -20 -20 -18 -20 -20 -20 -20 -20 -20 -20
-20 -20 -20 -20 -20 -20 -20 -20 -20 -20 -20 -20 -20 -20 -20 -20 -20 -20 -20 -20 -20 -20 -20 -20 -20 -20 -20 -20 -20 -20 -20 -20 -20 -20 -20 -20 -20 -20 -20 -20 -20 -8 -20 -20 -20 -20 -20 -20 -20
-20 -20 -20 -20 -20 -20 -20 -20 -20 -20 -20 -20 -20 -20 -20 -20 -20 -20 -20 -20 -20 -20 -20 -20 -20 -20 -20 -20 -20 -20 -20 -20 -20 -20 -20 -20 -20 -20 -20 -20 -20 22 -20 -20 -20 -20 -20 -9 -20
-20 -20 -20 -20 -20 -20 -20 -20 -20 -20 -20 -20 -20 -20 -20 -20 -20 -20 -20 -20 -20 -20 -20 -20 -20 -20 -20 -20 -20 -20 -20 -20 -20 -20 -20 -20 -20 -20 -20 -20 -20 -20 -20 -20 -20 -20 -20 -20 -20
-20 -20 -20 -20 -20 -20 -20 -20 -20 -20 -20 -20 -20 -20 -20 -20 -20 -20 -20 -20 -20 -20 -20 -20 -20 -20 -20 -20 -20 -20 9 -5 10 -17 -20 -20 -0 -20 -20 -20 -20 -20 -20 -20 -20 -20 -20 -20 2
-20 -20 -20 -20 -20 -20 -20 -20 -20 -20 -20 -20 -20 -20 -20 -20 -20 -20 -20 -20 -20 -20 -20 -20 -20 -20 -20 -20 -20 -20 -20 -18 5 7 5 10 2 -20 -20 -20 -20 -1 3 -4 -15 -20 -20 27 -18
-20 -20 -20 -20 -20 -20 -20 -20 -20 -20 -20 -20 -20 -20 -20 -20 -20 -20 -20 -20 -20 -20 -20 -20 -20 -20 -20 -20 -20 -20 13 15 -3 8 -20 -20 -20 -20 -20 -20 -20 -20 -2 -5 -12 -20 8 -16 -20
-20 -20 -20 -20 -20 -20 -20 -20 -20 -20 -20 -20 -20 -20 -20 -20 -20 -20 -20 -20 -20 -20 -20 -20 -20 -20 -20 -20 -20 -10 13 -8 16 -20 -20 -20 -19 -20 -20 -14 6 19 6 5 12 -3 17 -7 -15
-20 -20 -20 -20 -20 -20 -20 -20 -20 -20 -20 -20 -20 -20 -20 -20 -20 -20 -20 -20 -20 -20 -20 -20 -20 -20 -20 -20 -19 -20 -20 -1 -2 -20 -20 9 10 10 3 10 -4 -20 -20 17 24 9 -12 22 16
-20 -20 -20 -20 -20 -20 -20 -20 -20 -20 -20 -20 -20 -20 -20 -20 -20 -20 -20 -20 -20 -20 -20 -20 -20 -20 -20 -20 -20 -20 -20 15 3 -16 6 9 6 11 -7 8 -20 -20 6 26 25 26 25 9 -6
-20 -20 -20 -20 -20 -20 -20 -20 -20 -20 -20 -20 -20 -20 -20 -20 -20 -20 -20 -20 -20 -20 -20 -18 -20 -20 -20 -20 -20 -13 0 -8 1 -20 12 18 12 16 27 9 -0 24 25 20 10 13 5 -19 -11
-20 -20 -20 -20 -20 -20 -20 -20 -20 -20 -20 -20 -20 -20 -20 -20 -20 -20 -20 -20 -20 -20 -20 -20 -20 -20 -20 -20 -15 4 -1 2 12 18 8 13 19 20 9 -10 10 20 -7 -0 13 2 -13 -20 -20
-20 -20 -20 -20 -20 -20 -20 -20 -20 -20 -20 -20 -20 -20 -20 -20 -20 -20 -20 -20 -20 -20 -20 -20 -12 9 -8 -1 -16 14 7 5 15 11 8 10 13 4 -18 -12 -7 -20 -20 -20 -20 -20 -20 -20 -8
-12 -19 -14 -20 -20 -20 -20 -20 -20 -20 -20 -20 -20 -20 -20 -20 -20 -20 -20 -20 -20 -20 -20 -20 -20 -20 -20 -7 12 14 14 18 13 11 16 -19 -20 -20 -20 -20 -20 -20 -20 -20 -20 -20 -20 -20 -20
Wind_Speed
12 14 11 9 5 7 13 9 6 11 14 10 14 15 20 19 14 9 13 13 21 17 15 14 15 14 14 15 16 15 14 13 12 11 12 11 11 11 10 10 10 11 12 13 13 13 14 14 11
11 18 8 6 7 10 9 9 10 15 14 9 5 14 18 18 16 14 11 14 20 17 13 14 14 15 15 15 16 15 15 14 13 12 12 12 11 10 10 10 9 9 11 12 13 13 13 11 9
12 15 8 7 10 12 7 10 13 14 9 6 7 14 14 10 12 9 14 15 18 15 13 14 14 15 14 14 15 15 14 14 14 12 12 12 11 11 9 9 9 9 10 11 12 12 11 9 8
9 6 6 7 17 8 12 10 9 10 7 3 8 15 13 11 8 13 14 15 15 16 14 17 15 15 15 15 15 14 14 13 14 12 12 12 12 11 10 9 9 10 10 11 12 10 9 9 8
11 7 10 14 20 11 6 7 2 5 5 2 4 16 12 14 18 15 15 14 14 14 15 17 15 15 15 15 15 14 14 13 13 13 12 11 12 11 10 9 8 9 11 11 11 9 8 7 6
8 10 12 15 22 13 7 5 2 6 8 3 3 14 15 15 16 12 14 13 13 15 14 14 16 15 14 14 13 13 14 14 13 12 12 11 10 10 9 9 9 9 11 11 10 10 9 6 3
13 11 16 21 1 7 10 1 5 5 4 6 5 6 13 16 16 13 12 11 10 14 15 12 12 14 12 12 12 12 13 13 12 12 11 12 11 10 10 9 10 10 10 10 11 10 9 7 5
11 11 19 19 15 2 10 6 6 5 11 5 7 5 11 19 16 14 12 10 9 9 12 14 11 11 11 10 11 12 11 11 11 11 11 10 11 10 10 10 9 10 9 9 9 9 7 6 3
11 10 13 19 13 10 8 7 5 6 4 1 5 14 16 16 15 13 13 10 10 8 11 12 11 11 11 11 10 11 12 11 11 10 9 9 7 8 10 9 11 9 9 9 8 7 6 5 5
11 10 19 8 11 9 9 2 9 3 10 6 6 9 10 13 12 13 14 13 13 14 13 13 11 12 12 10 11 10 10 8 9 9 10 8 7 7 10 9 11 10 9 9 9 7 7 5 5
14 15 19 11 8 9 8 8 4 6 10 8 11 14 15 12 11 11 13 17 20 18 14 16 14 12 13 10 9 6 6 6 7 11 11 8 6 7 6 6 5 4 7 4 5 5 4 7 6
16 19 16 15 4 5 8 8 9 9 11 12 7 4 14 15 12 13 13 13 17 21 20 19 18 15 14 9 10 10 8 8 8 9 11 8 5 8 6 6 7 5 5 6 6 4 6 7 7
18 18 15 12 12 6 11 11 12 12 12 11 10 8 6 7 8 11 12 11 9 18 21 20 20 16 15 12 11 11 10 10 10 10 11 9 8 7 7 7 8 7 7 6 7 6 7 6 7
15 8 15 20 11 12 13 15 14 13 14 13 13 13 12 14 12 12 10 9 7 6 21 21 20 18 16 13 9 11 11 12 11 10 11 13 8 6 7 5 9 9 8 7 6 7 6 5 4
17 13 13 17 14 14 13 17 18 16 15 15 14 11 9 7 10 12 8 8 6 5 20 20 19 18 16 16 11 9 11 10 11 11 13 15 12 6 9 7 5 6 7 9 7 5 5 4 4
13 13 17 18 21 20 17 18 17 18 18 16 17 11 10 10 10 8 9 6 4 5 12 19 16 17 17 14 12 7 9 10 11 10 11 16 15 9 7 7 6 5 5 4 1 2 3 4 4
17 16 20 22 21 18 19 16 19 18 7 7 7 9 9 6 9 10 10 8 8 8 7 18 17 17 18 14 11 11 8 8 8 10 8 13 15 13 6 6 5 7 5 5 5 4 3 4 4
18 20 20 20 17 17 17 17 16 15 9 9 11 11 11 10 14 11 11 8 9 10 9 15 14 17 17 13 10 9 8 8 10 8 10 10 12 12 8 6 5 7 6 5 5 5 5 4 5
20 22 22 18 23 18 15 16 15 15 15 16 17 15 14 14 13 11 8 9 9 5 6 3 11 12 12 12 12 11 11 9 9 10 11 10 12 13 11 6 5 3 5 5 7 5 6 4 2
23 24 23 18 16 6 12 16 17 16 16 18 18 16 15 14 14 14 11 10 8 7 7 4 2 9 11 10 10 9 10 9 9 6 8 8 13 13 11 7 7 6 5 6 6 6 3 3 3
23 22 20 20 17 19 11 20 18 19 22 24 21 15 14 13 13 14 12 10 10 9 7 5 4 7 9 12 9 8 7 8 8 9 9 9 13 13 11 10 7 6 6 7 5 6 8 4 2
23 20 18 19 17 15 16 16 18 13 17 17 20 14 11 12 13 17 10 9 10 8 7 2 3 6 7 13 12 13 10 10 8 7 7 8 11 11 9 8 8 5 4 5 5 5 5 4 5
23 18 18 17 17 18 22 14 12 16 17 18 16 15 16 13 11 10 8 9 9 10 7 1 6 6 7 8 8 9 8 4 3 4 5 5 7 9 9 8 8 6 4 5 6 5 6 5 4
20 22 18 16 13 16 20 18 15 15 18 16 9 7 6 8 9 8 9 11 11 10 4 4 5 7 8 7 8 9 9 7 5 5 4 3 3 4 6 7 6 7 5 5 4 4 7 8 6
25 17 12 15 14 19 15 18 17 12 20 22 10 10 7 8 6 13 14 8 9 9 4 2 5 2 3 8 8 10 8 9 13 10 7 6 5 4 6 6 6 5 5 4 3 3 2 3 4
26 20 13 18 14 17 21 25 18 19 15 11 7 6 2 5 7 7 11 9 11 10 6 4 1 2 2 5 5 5 6 4 6 7 6 5 5 6 6 6 6 5 4 4 3 2 3 2 0
25 26 25 20 21 15 14 21 18 20 8 7 9 10 8 6 8 5 4 8 12 10 7 6 6 5 3 3 5 6 6 7 7 9 8 6 6 6 7 7 7 5 5 6 5 3 3 4 4
26 18 21 15 21 24 16 19 10 9 13 14 12 10 9 8 13 10 7 13 11 10 8 6 6 6 5 6 6 6 7 8 7 8 8 9 7 8 8 7 7 6 6 5 5 3 3 3 3
18 22 19 16 15 17 21 16 11 17 9 12 13 10 9 10 8 9 9 14 14 11 9 7 5 7 6 5 7 8 8 9 8 8 8 8 9 9 9 8 7 7 7 7 5 4 2 2 2
26 26 25 12 29 24 17 14 7 3 5 5 9 10 11 9 10 8 10 15 14 11 9 8 7 6 6 7 7 7 8 8 9 9 9 9 9 8 8 7 7 7 6 7 7 6 5 4 2
Wind_Direction
284 264 241 273 255 229 274 90 83 115 91 71 56 71 62 48 41 81 121 106 113 125 128 135 127 132 137 136 135 135 134 133 128 123 117 114 109 102 96 94 99 110 113 114 112 110 109 106 98
298 295 255 278 254 259 290 100 91 85 85 97 101 98 81 76 82 106 112 119 123 130 143 136 132 134 137 140 138 139 141 136 131 131 128 125 118 111 108 104 103 108 114 117 119 116 110 105 93
267 264 281 221 244 261 122 88 92 100 144 149 114 63 80 91 99 82 116 134 123 135 150 131 134 135 140 143 141 143 144 138 136 136 136 132 129 125 120 116 114 118 119 122 120 116 111 103 104
260 221 242 261 263 45 56 70 97 132 125 81 328 102 81 81 75 113 132 138 132 138 145 138 138 140 145 145 147 147 144 141 138 141 142 140 137 135 128 126 127 128 126 124 123 122 113 112 118
239 271 265 253 257 107 79 52 125 153 113 121 298 113 106 96 105 120 132 139 139 140 123 143 141 143 147 150 152 150 146 144 145 145 143 143 139 137 134 131 131 129 126 123 124 118 112 114 113
269 235 262 256 247 109 105 71 246 288 124 190 263 125 120 119 125 132 139 137 140 129 137 144 144 146 150 153 154 151 148 150 150 147 146 144 139 136 137 135 132 127 122 124 128 130 130 128 122
255 273 259 272 348 122 116 120 205 210 235 152 68 88 130 150 128 138 136 135 138 138 138 145 151 153 148 150 152 151 152 154 151 149 148 145 146 146 146 142 139 135 137 141 141 142 146 153 161
255 281 279 278 284 136 115 135 26 297 67 84 33 358 168 124 138 138 131 134 129 130 131 147 155 157 161 162 153 153 154 151 151 153 152 153 150 153 154 149 149 149 152 148 149 152 156 156 176
277 265 259 252 280 117 129 161 164 357 299 73 100 66 95 125 142 148 139 145 144 144 138 147 162 167 166 162 163 154 156 153 149 155 152 148 172 170 162 188 156 160 155 156 158 162 165 177 204
223 241 252 8 359 43 125 312 127 224 222 159 153 112 126 149 165 165 167 168 171 169 162 159 171 174 169 174 155 169 169 169 176 175 168 183 183 181 174 168 157 162 167 168 167 175 181 203 214
237 246 267 329 38 344 329 165 206 237 273 239 190 178 164 174 185 199 199 187 181 176 169 166 172 176 180 191 155 175 175 178 185 182 171 201 190 183 184 134 156 160 178 178 181 178 213 211 230
242 254 272 282 56 320 280 286 258 205 255 297 326 6 164 181 201 205 225 228 182 173 172 169 169 179 187 200 164 175 178 184 183 189 179 193 204 173 184 158 165 172 174 206 182 193 209 238 243
235 245 264 269 285 263 289 279 275 274 267 282 276 272 228 247 238 221 231 241 249 172 169 173 169 180 183 199 175 177 188 185 186 187 189 192 205 173 180 171 171 179 174 207 185 204 200 215 229
262 256 256 268 239 253 254 262 257 253 256 261 257 249 224 230 237 243 250 248 238 208 168 168 171 175 183 201 194 180 186 179 186 188 193 192 212 182 186 201 177 181 184 197 212 199 188 210 167
275 277 263 264 257 254 255 260 252 254 252 250 250 232 244 247 245 247 251 249 206 227 158 166 170 171 184 193 214 188 180 182 191 189 191 190 208 203 175 187 199 183 185 182 197 201 195 164 186
262 244 252 248 236 235 225 259 264 256 227 236 242 251 225 226 227 248 238 225 231 216 159 167 168 170 179 184 201 212 196 195 186 198 190 186 195 214 186 179 201 188 161 150 152 270 181 179 186
233 242 235 245 247 234 204 245 250 249 197 232 268 253 248 240 219 215 232 203 202 210 188 169 170 176 175 182 192 208 196 187 210 191 202 182 190 199 181 203 189 179 163 152 166 227 205 185 202
233 221 241 261 261 200 218 222 247 279 240 240 238 236 257 255 257 228 213 204 206 218 185 163 174 177 173 177 186 196 210 196 196 199 199 178 185 193 197 196 229 180 173 153 159 193 214 192 192
250 258 247 237 226 198 215 242 256 253 247 227 226 232 234 242 256 263 207 196 217 221 98 49 159 180 173 177 184 190 205 199 197 209 188 186 181 186 192 193 209 199 147 164 163 192 233 224 174
243 258 262 277 274 202 234 245 252 246 252 256 257 249 234 226 238 241 235 211 191 132 113 155 229 157 186 187 186 192 194 201 204 195 188 195 177 178 185 189 190 178 170 192 177 178 197 212 177
241 239 249 262 267 270 257 274 268 257 255 249 253 253 240 246 230 240 234 194 146 138 153 179 217 197 186 184 184 189 189 201 185 196 194 194 165 170 183 181 181 180 179 193 174 172 201 182 174
236 239 246 258 269 259 263 270 257 261 265 252 229 232 252 244 232 242 234 158 136 124 109 103 256 231 222 189 185 192 203 199 196 189 189 155 153 159 169 176 186 164 160 189 183 173 188 162 173
248 245 249 250 247 254 251 261 254 267 266 268 212 220 219 226 227 215 189 126 116 83 83 329 232 238 237 191 193 195 194 148 83 79 96 115 136 152 166 168 168 174 175 190 186 178 183 186 165
238 247 255 261 267 257 242 249 254 248 259 258 215 200 201 225 218 176 109 93 101 85 67 263 233 209 208 169 152 138 159 160 185 154 162 180 136 127 146 166 166 173 158 167 192 191 192 189 190
231 236 226 231 226 241 232 240 239 245 246 251 222 194 206 210 171 118 115 125 124 119 151 258 283 152 81 110 135 153 170 195 211 172 179 160 143 153 147 136 142 142 141 165 174 163 195 178 186
224 215 228 224 225 250 223 242 245 245 256 203 157 174 90 102 92 126 141 145 128 129 140 182 201 100 99 118 134 162 126 130 144 146 145 155 157 154 145 148 141 146 156 169 184 190 195 154 251
222 215 224 252 279 287 262 249 242 220 199 170 168 178 189 160 132 142 157 127 118 127 142 168 148 121 136 155 188 167 141 140 138 138 150 158 156 157 160 134 123 142 147 166 155 145 161 173 185
222 237 210 227 235 251 254 251 257 242 191 187 193 198 189 191 161 172 168 124 128 124 129 112 126 121 106 108 109 115 119 113 125 130 136 136 129 131 131 135 141 151 154 156 140 119 119 146 155
192 226 242 210 223 232 254 247 236 270 334 204 183 201 210 208 184 168 164 134 123 129 128 128 132 143 135 122 120 122 125 130 132 132 128 132 142 147 151 150 141 148 161 162 150 140 140 229 217
205 209 226 210 219 225 243 246 270 330 5 359 180 203 192 195 199 160 151 135 133 140 140 135 143 136 137 139 138 141 145 141 137 144 151 152 146 146 135 142 146 139 131 140 152 163 174 191 225